CAPE
0 0 0 0 0 0 0 0 0 514 119 43 32 56 283 665 777 378 315 302 798 914 1096 1161 1365 1678 1666 1701 1767 1827 1839 1823 1766 1695 1847 1868 1942 1946 1874 1824 1770 1658 1650 1339 1210 989 830 1161 1228
0 0 0 0 0 0 0 6 854 486 644 697 684 470 401 460 287 303 90 306 646 708 1047 1152 1293 1613 1650 1543 1555 1554 1691 1701 1585 1728 1885 1901 1934 1932 1880 1781 1762 1737 1625 1245 1140 978 985 1064 995
0 0 0 0 0 0 0 966 958 761 917 773 607 556 471 411 578 360 407 452 442 562 855 1124 1089 1403 1544 1584 1559 1531 1456 1409 1397 1656 1846 1893 1811 1674 1584 1526 1604 1682 1504 1127 973 982 1048 889 718
0 0 0 0 0 0 0 470 348 359 147 266 331 574 649 728 969 702 479 162 176 332 573 856 1059 1261 1454 1498 1454 1327 1156 1135 1307 1570 1807 1825 1733 1584 1439 1339 1540 1454 1456 1121 1074 1042 927 701 601
0 0 0 0 0 1 1085 847 569 592 374 103 76 399 756 905 788 678 321 154 82 113 330 530 785 1038 1281 1398 1312 1176 1102 1122 1285 1533 1605 1617 1426 1243 1137 1096 1137 1351 1322 1252 1046 953 677 506 382
0 0 0 0 0 110 478 313 318 413 246 164 41 450 490 876 872 633 657 391 183 314 134 240 690 688 766 868 883 897 1020 1116 1212 1339 1454 1459 1146 861 865 935 914 1054 1159 1026 904 608 493 361 224
0 0 0 0 0 15 70 106 228 248 307 215 112 93 487 924 872 678 498 702 674 637 625 573 464 508 410 447 575 711 829 920 1004 1078 1142 1048 877 755 735 730 787 719 583 626 658 495 400 323 228
0 0 0 0 0 0 15 53 103 139 215 175 343 327 498 522 777 544 271 211 255 431 715 587 677 683 661 397 403 549 668 701 742 851 876 785 713 692 718 669 642 676 569 398 234 247 223 204 162
1 0 0 0 27 2 0 20 46 96 144 199 180 569 567 548 390 386 311 30 0 0 35 532 649 690 883 758 384 450 584 553 532 566 623 547 370 491 692 636 447 546 405 279 156 97 116 85 77
9 1 7 0 6 0 1 1 0 60 128 69 115 364 465 442 159 127 53 1 0 0 0 0 20 507 828 718 700 852 542 553 426 356 328 384 487 390 857 755 644 401 306 180 70 16 1 8 1
0 2 30 0 0 0 6 0 3 64 83 124 145 226 179 164 125 96 70 30 46 16 9 23 35 34 592 490 801 875 916 791 754 660 798 786 926 801 673 593 744 398 379 179 105 5 0 0 17
0 0 33 64 12 0 0 0 7 43 72 109 102 104 72 73 118 109 86 34 58 52 20 32 60 110 181 276 784 869 857 653 612 660 729 649 628 664 735 792 791 648 641 549 350 198 24 16 101
1 2 7 74 18 4 1 26 0 0 3 41 77 61 68 57 57 59 33 6 31 80 157 212 220 195 171 227 240 325 392 466 439 571 518 608 697 673 702 570 581 527 515 614 603 558 426 149 108
0 0 11 23 5 0 15 1 0 0 15 40 78 98 71 48 87 159 294 350 308 236 131 30 5 0 0 0 0 11 98 297 300 330 430 725 562 485 515 457 488 473 378 435 459 544 618 681 388
0 0 3 10 21 3 32 11 0 0 0 2 17 32 83 93 117 152 184 263 155 104 8 0 0 0 0 0 0 0 0 0 1 2 80 272 376 525 470 602 633 563 422 421 317 379 389 450 496
0 0 0 0 0 1 0 0 0 0 0 0 0 7 57 79 137 116 106 118 79 8 0 0 0 0 0 0 0 0 0 0 0 0 0 2 1 26 33 287 433 598 671 224 630 288 287 298 265
0 0 0 0 0 0 0 0 0 0 0 0 0 11 5 10 6 1 0 0 0 0 0 0 0 0 0 0 2 0 0 0 0 0 0 0 0 0 0 0 0 1 0 2 142 370 180 279 37
0 0 0 0 0 0 0 0 0 0 0 0 1 0 0 0 0 0 0 0 0 0 0 0 0 0 0 0 0 0 0 0 0 0 0 0 0 0 0 0 0 0 0 0 0 0 0 0 4
0 0 0 0 0 0 0 0 0 0 0 0 0 0 0 0 0 0 0 0 0 0 0 0 0 0 0 0 0 0 0 0 0 0 0 0 0 0 0 0 0 0 0 0 0 0 0 0 0
0 0 0 0 0 0 0 0 0 0 0 0 0 0 0 0 0 0 0 0 0 0 0 0 0 0 0 0 0 0 0 0 0 0 0 0 0 0 0 0 0 0 0 0 0 0 0 0 0
0 0 0 0 0 0 0 0 0 0 0 0 0 0 0 0 0 0 0 0 0 0 0 0 0 0 0 0 0 0 0 0 0 0 0 0 0 0 0 0 0 0 0 0 0 0 0 0 0
0 1 0 6 0 0 0 0 0 0 0 0 0 0 0 0 0 0 0 0 0 0 0 0 0 0 0 0 0 0 0 0 0 0 0 0 0 0 0 0 0 0 0 0 0 0 0 0 0
0 0 0 7 0 0 0 0 0 0 0 0 0 0 0 0 0 0 0 0 0 0 0 0 0 0 0 0 0 0 0 0 0 0 0 0 0 0 0 0 0 0 0 0 0 0 0 0 0
16 4 5 3 0 0 0 0 0 0 0 0 0 0 0 0 0 0 0 0 0 0 0 0 0 0 0 0 0 0 0 0 0 0 0 0 0 0 0 0 0 0 0 0 0 0 0 0 0
27 19 5 0 0 0 0 0 0 0 0 0 0 0 0 0 0 0 0 0 0 0 0 0 0 0 0 0 0 0 0 0 0 0 0 0 0 0 0 0 0 0 0 0 0 0 0 0 0
0 0 0 0 0 0 4 0 0 0 0 0 0 0 0 0 0 0 0 0 0 0 0 0 0 0 0 0 0 0 0 0 0 0 0 0 0 0 0 0 0 0 0 0 0 0 0 0 0
0 0 0 0 0 0 0 0 0 0 0 0 0 0 0 0 0 0 0 0 0 0 0 0 0 0 0 0 0 0 0 0 0 0 0 0 0 0 0 0 0 0 0 0 0 0 0 0 0
0 0 0 0 0 0 0 0 0 0 0 0 0 0 0 0 0 0 0 0 0 0 0 0 0 0 0 0 0 0 0 0 0 0 0 0 0 0 0 0 0 0 0 0 0 0 0 0 0
0 0 0 0 0 0 0 0 0 0 0 0 0 0 0 0 0 0 0 0 0 0 0 0 0 0 0 0 0 0 0 0 0 0 0 0 0 0 0 0 0 0 0 0 0 0 0 0 0
0 0 0 0 0 0 2 1 0 0 0 0 0 0 0 0 0 0 0 0 0 0 0 0 0 0 0 0 0 0 0 0 0 0 0 0 0 0 0 0 0 0 0 0 0 0 0 0 0
CIN
0 0 0 0 0 0 0 0 0 -32 -45 -228 -25 -38 -188 -117 -100 -108 -55 -127 -113 -78 -60 -68 -54 -22 -15 -6 -3 -1 0 0 0 -2 0 0 0 0 -1 -1 -2 -1 0 -1 -1 -13 -33 -14 -11
0 0 0 0 0 0 0 -23 -139 -78 -213 -167 -197 -240 -142 -147 -204 -88 -160 -151 -139 -113 -59 -62 -63 -27 -11 -10 -8 -6 -3 -2 -4 -1 0 0 0 0 0 -1 -1 0 0 -8 -12 -14 -9 -7 -20
0 0 0 0 0 0 0 -121 -83 -84 -116 -213 -274 -195 -191 -177 -183 -185 -183 -200 -226 -145 -80 -59 -75 -47 -29 -14 -3 -3 -5 -9 -6 -1 0 0 0 0 -1 -1 -1 0 0 -1 -18 -28 -20 -23 -42
0 0 0 0 0 0 0 -45 -118 -36 -38 -192 -144 -167 -102 -132 -116 -180 -191 -206 -362 -239 -123 -82 -67 -44 -23 -18 -19 -22 -19 -16 -8 -1 0 0 0 -2 -9 -8 0 0 0 0 0 -4 -25 -66 -87
0 0 0 0 0 -16 -133 -91 -147 -184 -144 -196 -363 -211 -126 -126 -142 -137 -237 -202 -367 -345 -242 -157 -103 -63 -30 -15 -21 -34 -39 -33 -11 -1 -1 0 0 -1 -6 -18 -20 -4 -1 0 -1 -2 -23 -53 -80
0 0 0 0 0 -13 -135 -96 -113 -111 -80 -127 -67 -166 -120 -93 -96 -146 -176 -208 -239 -178 -303 -284 -129 -119 -101 -69 -52 -35 -20 -15 -9 -5 -3 -2 -17 -37 -34 -23 -20 -8 -14 -29 -33 -50 -57 -77 -102
0 0 0 0 0 -5 -45 -71 -125 -74 -196 -154 -150 -203 -97 -51 -63 -70 -131 -84 -70 -83 -103 -105 -116 -144 -193 -157 -120 -91 -58 -35 -23 -12 -11 -24 -48 -65 -59 -62 -54 -48 -47 -44 -51 -86 -98 -102 -119
0 0 0 0 0 0 -46 -36 -80 -93 -78 -208 -95 -146 -109 -125 -73 -61 -110 -200 -179 -136 -68 -94 -75 -78 -46 -87 -163 -116 -100 -87 -74 -60 -54 -65 -77 -74 -63 -65 -72 -83 -104 -112 -114 -105 -117 -138 -150
-15 0 0 -5 -65 -30 0 -52 -24 -58 -123 -92 -111 -57 -83 -100 -90 -101 -122 -288 0 0 -144 -86 -56 -71 -24 -25 -96 -144 -116 -114 -107 -98 -91 -107 -142 -104 -89 -12 -96 -123 -125 -141 -186 -221 -213 -255 -276
-21 -18 -7 0 -22 0 -40 -14 0 -24 -67 -83 -105 -46 -65 -65 -137 -184 -261 -21 0 0 0 0 -428 -80 -22 -29 -29 -11 -20 -15 -17 -18 -32 -19 -5 -80 -55 -27 -42 -148 -153 -197 -250 -300 -146 -259 -55
-4 -26 -7 0 -108 0 -41 0 -31 -57 -61 -75 -92 -79 -76 -81 -63 -50 -46 -233 -231 -258 -234 -271 -263 -351 -46 -67 -9 -5 0 -28 -3 -20 -9 -3 -52 -14 -9 -60 -60 -49 -135 -190 -218 -79 0 0 -133
0 0 -16 -36 -115 0 0 -4 -126 -53 -33 -77 -74 -106 -117 -120 -116 -71 -46 -214 -222 -214 -223 -219 -192 -186 -199 -173 -33 -12 -12 -25 -29 -12 -8 -7 -20 -14 -12 -8 -4 -8 -10 -21 -34 -73 -143 -145 -89
-22 -148 -103 -50 -109 -99 -15 -24 0 0 -126 -48 -68 -91 -95 -98 -90 -71 -90 -242 -227 -158 -129 -121 -115 -114 -121 -114 -80 -116 -98 -44 -47 -27 -40 -10 -8 -11 -8 -13 -13 -13 -22 -9 -4 -22 -43 -88 -116
0 -11 -76 -61 -135 0 -56 -10 0 0 -118 -63 -42 -46 -65 -87 -122 -99 -106 -87 -92 -99 -118 -163 -62 0 0 0 0 -98 -213 -113 -100 -80 -56 -18 -27 -23 -12 -10 -10 -11 -13 -13 -17 -19 -12 -10 -26
0 0 -91 -106 -98 -104 -55 -56 0 0 0 -119 -39 -39 -73 -83 -96 -112 -94 -70 -86 -94 -143 0 0 0 0 0 0 0 0 0 0 0 -196 -106 -69 -31 -27 -7 -1 -1 -3 -7 -21 -25 -13 -13 -22
0 0 0 0 0 -134 0 0 0 0 0 0 -4 -20 -34 -55 -53 -75 -77 -77 -79 -98 0 0 0 0 0 0 0 0 0 0 0 0 0 -1 -1 -138 -138 -34 -12 -1 0 -27 0 -11 -12 -18 -20
0 0 0 0 0 0 0 0 0 0 0 0 0 -30 -17 -9 -12 -39 0 0 0 0 0 0 0 0 0 0 -11 0 0 0 0 0 0 0 0 0 0 0 0 -1 0 -20 -4 -5 -19 -9 -77
0 0 0 0 0 0 0 0 0 0 0 0 -12 0 0 0 0 0 0 0 0 0 0 0 0 0 0 0 0 0 0 0 0 0 0 0 0 0 0 0 0 0 0 0 0 0 -1 -2 -7
0 0 0 0 0 0 0 0 0 0 0 0 0 0 0 0 0 0 0 0 0 0 0 0 0 0 0 0 0 0 0 0 0 0 0 0 0 0 0 0 0 0 0 0 0 0 0 0 0
0 0 0 -8 -1 0 0 0 0 0 0 0 0 0 0 0 0 0 0 0 0 0 0 0 0 0 0 0 0 0 0 0 0 0 0 0 0 0 0 0 0 0 0 0 0 0 0 0 0
0 0 0 0 0 0 0 0 0 0 0 0 0 0 0 0 0 0 0 0 0 0 0 0 0 0 0 0 0 0 0 0 0 0 0 0 0 0 0 0 0 0 0 0 0 0 0 0 0
0 -4 0 -28 0 0 0 0 0 0 0 0 0 0 0 0 0 0 0 0 0 0 0 0 0 0 0 0 0 0 0 0 0 0 0 0 0 0 0 0 0 0 0 0 0 0 0 0 0
-1 0 -4 -3 -6 0 0 0 0 0 0 0 0 0 0 0 0 0 0 0 0 0 0 0 0 0 0 0 0 0 0 0 0 0 0 0 0 0 0 0 0 0 0 0 0 0 0 0 0
-25 -2 -3 -8 -4 0 0 0 0 0 0 0 0 0 0 0 0 0 0 0 0 0 0 0 0 0 0 0 0 0 0 0 0 0 0 0 0 0 0 0 0 0 0 0 0 0 0 0 0
-15 -3 -5 0 0 0 0 -15 0 0 0 0 0 0 0 0 0 0 0 0 0 0 0 0 0 0 0 0 0 0 0 0 0 0 0 0 0 0 0 0 0 0 0 0 0 0 0 0 0
0 0 0 0 0 0 -5 0 -5 0 0 0 0 0 0 0 0 0 0 0 0 0 0 0 0 0 0 0 0 0 0 0 0 0 0 0 0 0 0 0 0 0 0 0 0 0 0 0 0
0 0 0 -12 0 0 0 0 0 0 0 0 0 0 0 0 0 0 0 0 0 0 0 0 0 0 0 0 0 0 0 0 0 0 0 0 0 0 0 0 0 0 0 0 0 0 0 0 0
0 0 0 0 0 0 0 0 0 0 0 0 0 0 0 0 0 0 0 0 0 0 0 0 0 0 0 0 0 0 0 0 0 0 0 0 0 0 0 0 0 0 0 0 0 0 0 0 0
0 0 0 0 0 0 0 0 0 0 0 0 0 0 0 0 0 0 0 0 0 0 0 0 0 0 0 0 0 0 0 0 0 0 0 0 0 0 0 0 0 0 0 0 0 0 0 0 0
0 0 0 0 0 0 -2 -3 0 0 0 0 0 0 0 0 0 0 0 0 0 0 0 0 0 0 0 0 0 0 0 0 0 0 0 0 0 0 0 0 0 0 0 0 0 0 0 0 0
Wind_Speed
nan nan nan nan nan nan nan nan nan 39 38 nan nan nan 19 12 15 4 10 13 13 7 3 9 10 11 12 12 13 14 12 11 10 8 9 8 9 10 10 10 11 11 11 12 14 15 16 15 16
nan nan nan nan nan nan nan nan 40 43 50 48 41 40 29 20 16 10 nan 12 13 8 3 3 8 10 9 8 10 13 13 13 11 10 9 9 9 9 11 12 11 11 11 11 12 14 15 15 13
nan nan nan nan nan nan nan 33 38 40 54 45 43 28 14 14 6 7 10 16 14 8 1 1 4 8 8 8 8 11 12 13 14 12 12 12 10 9 11 12 11 11 12 12 11 11 11 12 12
nan nan nan nan nan nan nan 25 30 27 35 42 43 31 18 10 6 6 14 7 15 6 3 5 5 6 7 6 7 8 10 11 13 14 14 13 11 10 10 11 13 11 12 13 13 12 10 9 9
nan nan nan nan nan nan 46 52 53 54 51 54 nan 17 17 16 17 12 19 12 nan 8 7 6 9 7 5 4 5 6 7 9 10 11 12 14 13 10 9 10 12 12 12 13 13 12 11 10 9
nan nan nan nan nan 33 44 49 54 56 31 34 nan 51 24 20 16 21 19 23 15 13 10 9 13 12 10 7 5 4 5 5 5 7 7 9 11 12 11 10 12 14 13 12 12 12 11 10 9
nan nan nan nan nan nan nan 50 59 53 47 43 27 nan 23 21 16 24 22 24 19 16 14 14 11 10 11 11 9 7 6 5 5 5 4 2 3 7 10 12 11 12 13 13 12 12 10 10 9
nan nan nan nan nan nan nan nan 55 49 49 37 13 19 21 19 21 25 23 26 23 19 16 14 15 12 9 7 12 12 12 10 9 7 4 2 2 3 5 7 8 10 13 14 14 12 11 11 10
nan nan nan nan nan nan nan nan nan nan 53 56 51 23 26 29 35 32 27 nan nan nan nan 17 17 14 12 10 10 14 15 14 13 12 11 8 4 5 4 5 8 10 10 9 11 nan 15 nan nan
nan nan nan nan nan nan nan nan nan nan 57 nan 38 30 30 34 37 35 nan nan nan nan nan nan nan 17 15 14 13 9 11 12 10 10 11 12 10 11 13 9 8 9 9 7 nan nan nan nan nan
nan nan nan nan nan nan nan nan nan nan nan 40 39 38 41 48 44 nan nan nan nan nan nan nan nan nan 22 18 16 15 16 15 17 21 18 13 12 13 13 15 12 11 10 11 11 nan nan nan nan
nan nan nan nan nan nan nan nan nan nan nan 35 38 40 nan nan 43 42 nan nan nan nan nan nan nan 24 26 22 24 26 23 23 22 21 22 19 19 22 21 21 17 16 15 14 13 14 nan nan 15
nan nan nan nan nan nan nan nan nan nan nan nan nan nan nan nan nan nan nan nan nan nan 32 30 29 28 26 30 29 30 30 28 27 28 27 26 27 25 23 26 28 27 25 22 20 17 18 16 17
nan nan nan nan nan nan nan nan nan nan nan nan nan nan nan nan nan 35 37 34 38 37 36 nan nan nan nan nan nan nan nan 35 35 34 33 34 33 31 31 30 28 28 31 32 31 29 26 22 23
nan nan nan nan nan nan nan nan nan nan nan nan nan nan nan nan 34 34 34 38 36 38 nan nan nan nan nan nan nan nan nan nan nan nan nan 42 39 36 36 35 33 31 32 32 34 36 38 34 31
nan nan nan nan nan nan nan nan nan nan nan nan nan nan nan nan 30 34 36 38 nan nan nan nan nan nan nan nan nan nan nan nan nan nan nan nan nan nan nan 40 39 39 39 39 37 37 36 36 39
nan nan nan nan nan nan nan nan nan nan nan nan nan nan nan nan nan nan nan nan nan nan nan nan nan nan nan nan nan nan nan nan nan nan nan nan nan nan nan nan nan nan nan nan 42 43 43 41 nan
nan nan nan nan nan nan nan nan nan nan nan nan nan nan nan nan nan nan nan nan nan nan nan nan nan nan nan nan nan nan nan nan nan nan nan nan nan nan nan nan nan nan nan nan nan nan nan nan nan
nan nan nan nan nan nan nan nan nan nan nan nan nan nan nan nan nan nan nan nan nan nan nan nan nan nan nan nan nan nan nan nan nan nan nan nan nan nan nan nan nan nan nan nan nan nan nan nan nan
nan nan nan nan nan nan nan nan nan nan nan nan nan nan nan nan nan nan nan nan nan nan nan nan nan nan nan nan nan nan nan nan nan nan nan nan nan nan nan nan nan nan nan nan nan nan nan nan nan
nan nan nan nan nan nan nan nan nan nan nan nan nan nan nan nan nan nan nan nan nan nan nan nan nan nan nan nan nan nan nan nan nan nan nan nan nan nan nan nan nan nan nan nan nan nan nan nan nan
nan nan nan nan nan nan nan nan nan nan nan nan nan nan nan nan nan nan nan nan nan nan nan nan nan nan nan nan nan nan nan nan nan nan nan nan nan nan nan nan nan nan nan nan nan nan nan nan nan
nan nan nan nan nan nan nan nan nan nan nan nan nan nan nan nan nan nan nan nan nan nan nan nan nan nan nan nan nan nan nan nan nan nan nan nan nan nan nan nan nan nan nan nan nan nan nan nan nan
nan nan nan nan nan nan nan nan nan nan nan nan nan nan nan nan nan nan nan nan nan nan nan nan nan nan nan nan nan nan nan nan nan nan nan nan nan nan nan nan nan nan nan nan nan nan nan nan nan
nan nan nan nan nan nan nan nan nan nan nan nan nan nan nan nan nan nan nan nan nan nan nan nan nan nan nan nan nan nan nan nan nan nan nan nan nan nan nan nan nan nan nan nan nan nan nan nan nan
nan nan nan nan nan nan nan nan nan nan nan nan nan nan nan nan nan nan nan nan nan nan nan nan nan nan nan nan nan nan nan nan nan nan nan nan nan nan nan nan nan nan nan nan nan nan nan nan nan
nan nan nan nan nan nan nan nan nan nan nan nan nan nan nan nan nan nan nan nan nan nan nan nan nan nan nan nan nan nan nan nan nan nan nan nan nan nan nan nan nan nan nan nan nan nan nan nan nan
nan nan nan nan nan nan nan nan nan nan nan nan nan nan nan nan nan nan nan nan nan nan nan nan nan nan nan nan nan nan nan nan nan nan nan nan nan nan nan nan nan nan nan nan nan nan nan nan nan
nan nan nan nan nan nan nan nan nan nan nan nan nan nan nan nan nan nan nan nan nan nan nan nan nan nan nan nan nan nan nan nan nan nan nan nan nan nan nan nan nan nan nan nan nan nan nan nan nan
nan nan nan nan nan nan nan nan nan nan nan nan nan nan nan nan nan nan nan nan nan nan nan nan nan nan nan nan nan nan nan nan nan nan nan nan nan nan nan nan nan nan nan nan nan nan nan nan nan
Wind_Direction
nan nan nan nan nan nan nan nan nan 286 272 nan nan nan 288 254 269 256 329 330 321 305 332 292 291 290 290 290 290 291 290 280 270 263 258 244 224 211 201 186 177 175 176 172 168 168 169 171 169
nan nan nan nan nan nan nan nan 265 263 270 279 263 258 263 263 240 262 nan 288 283 286 39 314 299 294 289 285 289 290 288 289 283 274 270 256 241 224 202 189 177 171 177 183 184 181 180 177 175
nan nan nan nan nan nan nan 239 270 258 256 266 266 229 231 244 220 201 172 261 267 263 291 308 277 289 292 295 288 289 287 284 285 279 281 279 258 234 218 199 187 180 181 188 194 197 195 188 185
nan nan nan nan nan nan nan 218 241 238 235 243 265 249 242 229 234 208 131 259 262 269 267 261 246 257 274 284 300 305 298 284 282 284 281 275 266 255 240 218 202 195 200 197 197 197 205 211 207
nan nan nan nan nan nan 226 229 227 239 230 243 nan 227 233 212 195 201 255 258 nan 264 263 269 270 256 256 261 268 286 302 304 292 283 286 287 285 269 242 233 225 219 218 219 211 207 206 211 219
nan nan nan nan nan 187 235 229 247 246 269 247 nan 244 230 210 205 232 230 239 242 258 251 264 280 283 276 261 241 238 250 272 290 306 308 304 305 304 293 263 238 228 231 234 228 224 222 219 220
nan nan nan nan nan nan nan 225 238 241 250 258 269 nan 220 226 208 230 229 239 230 236 242 256 252 268 284 290 289 291 289 291 268 240 246 271 326 339 322 314 301 276 247 232 232 240 245 241 235
nan nan nan nan nan nan nan nan 233 234 237 252 294 217 228 223 229 234 235 241 237 232 235 248 244 254 253 278 298 299 301 308 317 322 330 341 41 21 348 345 337 327 317 296 270 254 250 253 253
nan nan nan nan nan nan nan nan nan nan 244 238 252 241 235 234 242 245 243 nan nan nan nan 235 226 225 230 282 281 296 308 314 324 334 354 357 357 333 326 356 360 356 337 321 309 nan 285 nan nan
nan nan nan nan nan nan nan nan nan nan 242 nan 239 251 243 238 240 247 nan nan nan nan nan nan nan 228 244 261 275 286 286 279 285 301 321 324 341 329 338 335 345 332 316 323 nan nan nan nan nan
nan nan nan nan nan nan nan nan nan nan nan 230 235 231 236 234 238 nan nan nan nan nan nan nan nan nan 246 246 258 263 261 259 262 260 251 270 272 271 291 298 293 287 293 271 276 nan nan nan nan
nan nan nan nan nan nan nan nan nan nan nan 241 232 231 nan nan 229 231 nan nan nan nan nan nan nan 239 245 255 257 256 255 259 261 261 249 257 271 265 262 269 274 282 278 287 288 281 nan nan 285
nan nan nan nan nan nan nan nan nan nan nan nan nan nan nan nan nan nan nan nan nan nan 236 239 240 246 253 258 261 263 264 266 267 266 269 277 274 270 265 265 265 263 258 263 265 273 283 286 298
nan nan nan nan nan nan nan nan nan nan nan nan nan nan nan nan nan 236 224 225 234 238 236 nan nan nan nan nan nan nan nan 269 272 278 274 272 277 276 272 264 259 258 258 258 259 254 254 261 272
nan nan nan nan nan nan nan nan nan nan nan nan nan nan nan nan 232 239 234 231 234 238 nan nan nan nan nan nan nan nan nan nan nan nan nan 276 272 269 269 270 268 263 260 254 255 253 251 256 260
nan nan nan nan nan nan nan nan nan nan nan nan nan nan nan nan 217 233 237 236 nan nan nan nan nan nan nan nan nan nan nan nan nan nan nan nan nan nan nan 274 272 271 271 268 264 261 261 258 255
nan nan nan nan nan nan nan nan nan nan nan nan nan nan nan nan nan nan nan nan nan nan nan nan nan nan nan nan nan nan nan nan nan nan nan nan nan nan nan nan nan nan nan nan 270 271 269 266 nan
nan nan nan nan nan nan nan nan nan nan nan nan nan nan nan nan nan nan nan nan nan nan nan nan nan nan nan nan nan nan nan nan nan nan nan nan nan nan nan nan nan nan nan nan nan nan nan nan nan
nan nan nan nan nan nan nan nan nan nan nan nan nan nan nan nan nan nan nan nan nan nan nan nan nan nan nan nan nan nan nan nan nan nan nan nan nan nan nan nan nan nan nan nan nan nan nan nan nan
nan nan nan nan nan nan nan nan nan nan nan nan nan nan nan nan nan nan nan nan nan nan nan nan nan nan nan nan nan nan nan nan nan nan nan nan nan nan nan nan nan nan nan nan nan nan nan nan nan
nan nan nan nan nan nan nan nan nan nan nan nan nan nan nan nan nan nan nan nan nan nan nan nan nan nan nan nan nan nan nan nan nan nan nan nan nan nan nan nan nan nan nan nan nan nan nan nan nan
nan nan nan nan nan nan nan nan nan nan nan nan nan nan nan nan nan nan nan nan nan nan nan nan nan nan nan nan nan nan nan nan nan nan nan nan nan nan nan nan nan nan nan nan nan nan nan nan nan
nan nan nan nan nan nan nan nan nan nan nan nan nan nan nan nan nan nan nan nan nan nan nan nan nan nan nan nan nan nan nan nan nan nan nan nan nan nan nan nan nan nan nan nan nan nan nan nan nan
nan nan nan nan nan nan nan nan nan nan nan nan nan nan nan nan nan nan nan nan nan nan nan nan nan nan nan nan nan nan nan nan nan nan nan nan nan nan nan nan nan nan nan nan nan nan nan nan nan
nan nan nan nan nan nan nan nan nan nan nan nan nan nan nan nan nan nan nan nan nan nan nan nan nan nan nan nan nan nan nan nan nan nan nan nan nan nan nan nan nan nan nan nan nan nan nan nan nan
nan nan nan nan nan nan nan nan nan nan nan nan nan nan nan nan nan nan nan nan nan nan nan nan nan nan nan nan nan nan nan nan nan nan nan nan nan nan nan nan nan nan nan nan nan nan nan nan nan
nan nan nan nan nan nan nan nan nan nan nan nan nan nan nan nan nan nan nan nan nan nan nan nan nan nan nan nan nan nan nan nan nan nan nan nan nan nan nan nan nan nan nan nan nan nan nan nan nan
nan nan nan nan nan nan nan nan nan nan nan nan nan nan nan nan nan nan nan nan nan nan nan nan nan nan nan nan nan nan nan nan nan nan nan nan nan nan nan nan nan nan nan nan nan nan nan nan nan
nan nan nan nan nan nan nan nan nan nan nan nan nan nan nan nan nan nan nan nan nan nan nan nan nan nan nan nan nan nan nan nan nan nan nan nan nan nan nan nan nan nan nan nan nan nan nan nan nan
nan nan nan nan nan nan nan nan nan nan nan nan nan nan nan nan nan nan nan nan nan nan nan nan nan nan nan nan nan nan nan nan nan nan nan nan nan nan nan nan nan nan nan nan nan nan nan nan nan